[[{"header":{"parameterUnit":"m.s-1","parameterCategory":1,"la1":30.2991,"la2":30.254,"lo1":-89.0895,"lo2":-89.0444,"dy":0.0017,"dx":0.0017,"nx":28,"ny":28,"refTime":"2024-03-07T03:00:00:Z","depth":0,"parameterNumber":2,"parameterNumberName":"U-component_of_WINDS"},"data":[0,0,0,0,0,0,0,0,0,0,0,0,0,0,0,0,0,0,0,0,0,0,0,0,0,0,0,0,0,0,0,0,0,0,0,0,0,0,0,0,0,0,0,0,0,0,0,0,0,0,0,0,0,0,0,0,0,0,-4.5142,-4.5143,0,-4.5278,-4.5279,-4.5281,-4.5303,-4.5302,-4.5301,-4.5299,-4.5441,-4.5446,-4.5451,0,0,0,0,0,0,0,0,0,0,0,0,0,-4.4906,-4.4911,-4.5142,-4.5144,-4.5145,-4.5277,-4.5279,-4.5281,-4.5303,-4.5302,-4.53,-4.5299,-4.544,-4.5445,-4.5451,0,0,0,0,0,0,0,0,0,0,0,0,0,-4.5022,-4.4912,-4.5142,-4.5172,-4.5176,-4.5277,-4.5279,-4.5282,-4.5303,-4.5302,-4.53,-4.5298,-4.5438,-4.5445,-4.5452,-4.5533,0,0,-4.5474,-4.5478,0,0,0,0,0,0,0,0,-4.5015,-4.5031,-4.5166,-4.517,-4.5175,-4.5271,-4.5248,-4.5366,-4.5304,-4.5255,-4.5299,-4.5297,-4.5386,-4.5398,-4.5427,-4.5539,-4.5545,-4.5475,-4.5479,-4.5483,-4.5485,0,0,0,0,0,0,0,-4.5007,-4.5025,-4.5196,-4.5168,-4.5173,-4.5181,-4.5195,-4.5271,-4.5329,-4.5259,-4.5261,-4.5277,-4.5389,-4.542,-4.5431,-4.5547,-4.5475,-4.5481,-4.5486,-4.5489,-4.5734,-4.5736,0,0,0,0,0,0,-4.4993,-4.5018,-4.5191,-4.52,-4.5089,-4.5186,-4.5202,-4.5242,-4.5328,-4.534,-4.5278,-4.5277,-4.5408,-4.5422,-4.5436,-4.5535,-4.5483,-4.5489,-4.5494,-4.5732,-4.5735,-4.5737,0,0,0,0,0,0,-4.4988,-4.5009,-4.5186,-4.511,-4.5133,-4.5192,-4.5237,-4.5246,-4.5277,-4.5343,-4.5354,-4.5299,-4.5408,-4.5425,-4.5508,-4.5541,-4.5493,-4.5499,-4.5729,-4.5733,-4.5736,-4.5735,0,0,0,0,0,0,-4.4981,-4.5007,-4.5036,-4.511,-4.5137,-4.5255,-4.5239,-4.525,-4.529,-4.529,-4.5365,-4.5376,-4.5408,-4.5497,-4.5516,-4.555,-4.5505,-4.5727,-4.5731,-4.5735,-4.5733,-4.5738,-4.5743,0,0,0,0,0,-4.4973,-4.5031,-4.5038,-4.5059,-4.5175,-4.5256,-4.5272,-4.5306,-4.5292,-4.5323,-4.5366,-4.5374,-4.5535,-4.5506,-4.5526,-4.5563,-4.5725,-4.573,-4.5734,-4.573,-4.5737,-4.5743,0,0,0,0,0,0,-4.496,-4.5041,-4.5049,-4.5133,-4.5188,-4.526,-4.53,-4.5312,-4.5372,-4.5369,-4.5411,-4.5428,-4.5508,-4.5545,-4.5511,-4.5647,-4.5629,-4.5638,-4.5619,-4.5626,-4.5631,-4.5619,-4.5511,0,0,0,0,0,-4.4967,-4.5025,-4.5094,-4.5161,-4.5188,-4.524,-4.5276,-4.5298,-4.5356,-4.538,-4.5428,-4.5486,-4.5549,-4.559,-4.5653,-4.574,-4.5757,-4.5776,-4.5781,-4.5785,-4.5791,-4.584,-4.5849,-4.5753,-4.5753,-4.5753,0,0,-4.4982,-4.5034,-4.5068,-4.516,-4.5205,-4.5265,-4.5258,-4.5322,-4.5368,-4.539,-4.547,-4.5508,-4.5576,-4.5661,-4.5701,-4.5694,-4.5822,-4.5791,-4.5793,-4.5798,-4.5846,-4.5855,-4.5863,-4.5756,-4.5755,-4.5755,0,0,-4.5039,-4.5084,-4.5145,-4.519,-4.5258,-4.5293,-4.5307,-4.5379,-4.5404,-4.5486,-4.5504,-4.5561,-4.5669,-4.5716,-4.5754,-4.5833,-4.5843,-4.5853,-4.5878,-4.5926,-4.5933,-4.594,-4.5967,-4.5977,-4.586,-4.586,-4.586,0,-4.5048,-4.5138,-4.5175,-4.5238,-4.5279,-4.5302,-4.5365,-4.5408,-4.5493,-4.5521,-4.5512,-4.565,-4.5697,-4.5794,-4.5813,-4.5844,-4.5863,-4.5842,-4.5929,-4.5936,-4.5943,-4.597,-4.598,-4.5861,-4.5861,-4.5861,-4.586,0,-4.5146,-4.5209,-4.5251,-4.5331,-4.5377,-4.544,-4.5487,-4.553,-4.5549,-4.5585,-4.5669,-4.5727,-4.5801,-4.5827,-4.5847,-4.5928,-4.5921,-4.5921,-4.5903,-4.5953,-4.5978,-4.5988,-4.5861,-4.5861,-4.5861,-4.5861,0,0,-4.5195,-4.5297,-4.5311,-4.5349,-4.5427,-4.5477,-4.5543,-4.5615,-4.565,-4.571,-4.5765,-4.5859,-4.5859,-4.5903,-4.5929,-4.5971,-4.6029,-4.5966,-4.5968,-4.5974,-4.6122,-4.6119,-4.613,-4.6038,-4.604,-4.6042,-4.6115,0,-4.5259,-4.5374,-4.541,-4.5506,-4.5565,-4.559,-4.5648,-4.5703,-4.5739,-4.5796,-4.5837,-4.5902,-4.5898,-4.5925,-4.5968,-4.6012,-4.6059,-4.6008,-4.609,-4.6092,-4.6069,-4.6144,-4.6141,-4.6208,-4.6126,-4.6127,-4.6129,0,-4.5348,-4.5408,-4.551,-4.5582,-4.5608,-4.5659,-4.5729,-4.5783,-4.5847,-4.5871,-4.5921,-4.5944,-4.6015,-4.5997,-4.6095,-4.606,-4.6097,-4.6125,-4.6128,-4.6134,-4.6111,-4.615,-4.623,-4.6239,-4.6145,-4.6144,-4.6143,0,-4.5371,-4.5478,-4.5553,-4.5585,-4.5671,-4.5706,-4.5744,-4.5807,-4.5848,-4.5911,-4.5939,-4.6009,-4.6047,-4.6103,-4.6145,-4.6128,-4.624,-4.6225,-4.6262,-4.6261,-4.6282,-4.6279,-4.6366,-4.631,-4.631,-4.6309,-4.6309,0,-4.5437,-4.5498,-4.5564,-4.561,-4.568,-4.5723,-4.5791,-4.5831,-4.5887,-4.5942,-4.597,-4.6022,-4.6076,-4.6135,-4.617,-4.6246,-4.6264,-4.6286,-4.6294,-4.6282,-4.6278,-4.6304,-4.6299,-4.6312,-4.6312,-4.6311,-4.6311,0,-4.5473,-4.552,-4.5602,-4.5678,-4.5699,-4.5747,-4.5813,-4.5859,-4.5898,-4.5968,-4.5987,-4.6048,-4.612,-4.6169,-4.6261,-4.6284,-4.6367,-4.6375,-4.6344,-4.6347,-4.6381,-4.6376,-4.6484,-4.65,-4.6436,-4.6436,-4.6437,0,-4.551,-4.5557,-4.5639,-4.5677,-4.5715,-4.5777,-4.582,-4.5866,-4.591,-4.5988,-4.6025,-4.6099,-4.6159,-4.6273,-4.6327,-4.6398,-4.6407,-4.6441,-4.6418,-4.6404,-4.6406,-4.6401,-4.6406,-4.6443,-4.6443,-4.6443,-4.6444,0,-4.5571,-4.5593,-4.5653,-4.5722,-4.5772,-4.5829,-4.5886,-4.5916,-4.5973,-4.6021,-4.6094,-4.6141,-4.6236,-4.6308,-4.6385,-4.6427,-4.6445,-4.6451,-4.6463,-4.645,-4.6429,-4.6439,-4.6351,-4.6447,-4.6447,-4.6447,-4.6447,-4.6446,-4.5608,-4.5651,-4.5715,-4.5782,-4.583,-4.5883,-4.593,-4.5976,-4.6037,-4.6116,-4.6141,-4.6217,-4.6283,-4.6388,-4.6431,-4.6492,-4.6489,-4.6507,-4.6511,-4.6514,-4.6513,-4.6422,-4.6507,-4.6507,-4.6507,-4.6507,-4.6507,0,-4.5669,-4.5712,-4.5773,-4.5851,-4.5904,-4.5918,-4.5983,-4.6026,-4.6092,-4.6152,-4.6211,-4.6296,-4.6368,-4.6429,-4.6503,-4.6541,-4.6551,-4.6559,-4.6555,-4.6564,-4.6512,-4.6493,-4.6549,-4.6549,-4.6549,-4.6549,-4.6549,-4.6549,-4.5706,-4.578,-4.581,-4.5909,-4.5952,-4.6025,-4.6061,-4.6111,-4.6159,-4.6252,-4.6311,-4.6351,-4.6412,-4.6491,-4.6558,-4.6575,-4.66,-4.6605,-4.6623,-4.6573,-4.6568,-4.6563,-4.6545,-4.6611,-4.6611,-4.667,-4.667,-4.6671]},{"header":{"parameterUnit":"m.s-1","parameterCategory":1,"la1":30.2991,"la2":30.254,"lo1":-89.0895,"lo2":-89.0444,"dy":0.0017,"dx":0.0017,"nx":28,"ny":28,"refTime":"2024-03-07T03:00:00:Z","depth":0,"parameterNumber":3,"parameterNumberName":"V-component_of_WINDS"},"data":[0,0,0,0,0,0,0,0,0,0,0,0,0,0,0,0,0,0,0,0,0,0,0,0,0,0,0,0,0,0,0,0,0,0,0,0,0,0,0,0,0,0,0,0,0,0,0,0,0,0,0,0,0,0,0,0,0,0,4.1131,4.1133,0,4.1274,4.1275,4.1277,4.1287,4.1285,4.1284,4.1282,4.1427,4.1432,4.1437,0,0,0,0,0,0,0,0,0,0,0,0,0,4.0866,4.0871,4.1131,4.1133,4.1135,4.1274,4.1276,4.1277,4.1287,4.1285,4.1283,4.1282,4.1425,4.1431,4.1438,0,0,0,0,0,0,0,0,0,0,0,0,0,4.0992,4.0873,4.1131,4.1156,4.116,4.1273,4.1276,4.1278,4.1288,4.1285,4.1283,4.1281,4.1423,4.1431,4.1438,4.1535,0,0,4.1463,4.1466,0,0,0,0,0,0,0,0,4.0985,4.1002,4.1151,4.1155,4.1159,4.126,4.1235,4.1364,4.1288,4.1239,4.1282,4.128,4.1373,4.1385,4.1417,4.1542,4.1548,4.1464,4.1468,4.1472,4.1474,0,0,0,0,0,0,0,4.0977,4.0996,4.1187,4.1153,4.1158,4.1161,4.1176,4.126,4.1318,4.1243,4.1244,4.1261,4.1375,4.1409,4.142,4.155,4.1463,4.147,4.1475,4.1478,4.1765,4.1768,0,0,0,0,0,0,4.0963,4.0989,4.1183,4.1192,4.1065,4.1167,4.1184,4.123,4.1317,4.1328,4.1263,4.1261,4.1397,4.1411,4.1426,4.1547,4.1472,4.1479,4.1484,4.1762,4.1765,4.1769,0,0,0,0,0,0,4.0957,4.098,4.1177,4.1091,4.1116,4.1174,4.1226,4.1234,4.1269,4.1332,4.1342,4.1288,4.1395,4.1414,4.1509,4.1552,4.1483,4.149,4.1759,4.1763,4.1767,4.179,0,0,0,0,0,0,4.095,4.0978,4.1016,4.1091,4.112,4.1258,4.1228,4.1239,4.1283,4.1281,4.1358,4.1368,4.1395,4.1497,4.1517,4.1562,4.1496,4.1755,4.1761,4.1766,4.1785,4.1794,4.1802,0,0,0,0,0,4.094,4.1015,4.1017,4.1041,4.1169,4.1261,4.1277,4.1308,4.1286,4.1325,4.1365,4.1365,4.1544,4.1506,4.1529,4.1577,4.1753,4.1759,4.1765,4.1782,4.1792,4.1802,0,0,0,0,0,0,4.0942,4.1026,4.1029,4.1131,4.1189,4.1262,4.1312,4.1318,4.1382,4.1379,4.1413,4.143,4.1524,4.1559,4.1516,4.1677,4.1646,4.1657,4.1651,4.1661,4.1669,4.166,4.1503,0,0,0,0,0,4.0954,4.1023,4.1092,4.1175,4.1204,4.1253,4.1294,4.1312,4.1374,4.1398,4.1445,4.1504,4.1574,4.1619,4.1686,4.179,4.1808,4.1834,4.1842,4.1849,4.1859,4.1919,4.1932,4.1789,4.1789,4.1789,0,0,4.0981,4.1035,4.1075,4.1177,4.1224,4.1294,4.1273,4.1348,4.1401,4.1409,4.1502,4.1539,4.1607,4.1707,4.1754,4.174,4.1902,4.1857,4.1861,4.1868,4.1927,4.194,4.1952,4.1794,4.1793,4.1792,0,0,4.1065,4.1112,4.1188,4.1236,4.1308,4.134,4.1358,4.1431,4.1457,4.1551,4.1559,4.1622,4.174,4.1789,4.183,4.1934,4.1938,4.1955,4.1998,4.2057,4.2068,4.2078,4.2118,4.2132,4.1964,4.1964,4.1964,0,4.1089,4.1195,4.1226,4.1302,4.1347,4.1358,4.1436,4.1481,4.157,4.1602,4.1584,4.1735,4.1782,4.1895,4.1921,4.1952,4.1975,4.1947,4.2064,4.2074,4.2084,4.2123,4.2138,4.1966,4.1966,4.1965,4.1965,0,4.1222,4.1296,4.1349,4.1437,4.1488,4.1564,4.1606,4.1654,4.1668,4.1702,4.1798,4.1854,4.1935,4.1962,4.1975,4.2078,4.2068,4.2057,4.2027,4.21,4.2137,4.2151,4.1968,4.1968,4.1967,4.1967,0,0,4.1313,4.1418,4.1437,4.1479,4.1559,4.1617,4.1694,4.1773,4.1815,4.1876,4.1943,4.2043,4.2034,4.208,4.2099,4.215,4.2233,4.2133,4.2135,4.2153,4.2352,4.2362,4.2379,4.2234,4.2237,4.224,4.2348,0,4.1409,4.1548,4.1578,4.1697,4.1767,4.1779,4.1847,4.1904,4.1937,4.2002,4.2038,4.2111,4.2092,4.212,4.217,4.2212,4.2274,4.2204,4.2299,4.2302,4.2284,4.2398,4.2408,4.2508,4.2362,4.2364,4.2366,0,4.154,4.1606,4.1733,4.1807,4.1837,4.1898,4.1974,4.2035,4.21,4.2121,4.2173,4.2187,4.2268,4.2232,4.2346,4.2298,4.2338,4.2364,4.2368,4.2381,4.234,4.2416,4.254,4.2556,4.2389,4.2387,4.2385,0,4.1597,4.1718,4.1811,4.1845,4.1932,4.1975,4.2013,4.2076,4.2122,4.2188,4.2219,4.2293,4.2335,4.2392,4.2426,4.2396,4.2538,4.2504,4.2559,4.2559,4.2591,4.2589,4.2726,4.2611,4.2611,4.2611,4.261,0,4.1703,4.1782,4.1838,4.1896,4.1984,4.2017,4.2104,4.2141,4.2197,4.2263,4.2276,4.2337,4.2376,4.2443,4.247,4.2561,4.2579,4.2599,4.2606,4.26,4.2598,4.2629,4.2624,4.2615,4.2614,4.2613,4.2612,0,4.1784,4.1825,4.1927,4.2002,4.2022,4.2084,4.2148,4.2205,4.2238,4.2321,4.2342,4.2395,4.2474,4.2514,4.2611,4.2629,4.2734,4.2734,4.2713,4.2716,4.2771,4.2766,4.2935,4.296,4.2825,4.2826,4.2827,0,4.1851,4.1912,4.1993,4.2038,4.2078,4.215,4.2198,4.2233,4.2282,4.2362,4.2409,4.2489,4.2555,4.2681,4.2729,4.2804,4.2809,4.2863,4.282,4.2813,4.2814,4.2811,4.2819,4.2871,4.2873,4.2874,4.2874,0,4.1966,4.1984,4.2053,4.213,4.2187,4.2249,4.231,4.2346,4.239,4.2445,4.2527,4.2579,4.268,4.276,4.2839,4.2878,4.2885,4.2887,4.2905,4.2901,4.2887,4.2899,4.2737,4.2884,4.2883,4.2882,4.2882,4.2881,4.2044,4.21,4.2167,4.2244,4.2294,4.2351,4.2408,4.245,4.2519,4.2605,4.262,4.2708,4.2773,4.288,4.2922,4.2991,4.2979,4.3003,4.301,4.3017,4.3021,4.2873,4.3005,4.3004,4.3004,4.3004,4.3004,0,4.2163,4.2207,4.2277,4.2363,4.2424,4.2425,4.2492,4.2544,4.2621,4.2681,4.2746,4.2841,4.2919,4.2973,4.3052,4.3098,4.3103,4.3118,4.3116,4.3126,4.3025,4.3004,4.3112,4.3112,4.3112,4.3112,4.3112,4.3112,4.2233,4.2328,4.2354,4.2474,4.2517,4.2604,4.2643,4.2696,4.2745,4.2851,4.2916,4.295,4.3008,4.3092,4.3164,4.3178,4.3208,4.3224,4.3238,4.3144,4.3132,4.3122,4.3102,4.3229,4.3229,4.3333,4.3334,4.3335]}]]